Regional Weather Roundup
Issued by NWS Wakefield, VA

Home | Current Version | Previous Version | Text Only | Print | Product List | Glossary Off
Versions: 1 2 3 4 5 6 7 8 9 10 11 12 13 14 15 16 17 18 19 20 21 22 23 24 25 26 27 28 29 30 31 32 33 34 35 36 37 38 39 40 41 42 43 44 45 46 47 48 49 50

000
ASUS41 KAKQ 200210
RWRAKQ

REGIONAL WEATHER ROUNDUP
NATIONAL WEATHER SERVICE WAKEFIELD VA
1000 PM EDT FRI SEP 19 2014

Note: "fair" indicates few or no clouds below 12,000 feet with no
significant weather and/or obstructions to visibility. * = Denotes
station may not report precipitation (e.g., rain,snow,etc.),
thunder or fog.

VAZ042-051-052>054-056-200300-
NORTHERN VIRGINIA

CITY           SKY/WX    TMP DP  RH WIND       PRES   REMARKS
WASH NATIONAL  MOCLDY    70  59  68 E10       30.30R
DULLES         CLOUDY    66  58  75 SE8       30.29R
FORT BELVOIR   MOCLDY    67  60  78 SE6       30.30R
QUANTICO       CLOUDY    69  61  75 SE14      30.29R
FREDERICKSBRG* MOCLDY    64  58  81 CALM      30.27R
STAFFORD*      MOCLDY    62  62 100 CALM      30.32R
WARRENTON      CLOUDY    68  63  85 E6        30.28R
CULPEPER*      CLOUDY    66  61  82 CALM      30.29R
MANASSAS*      MOCLDY    66  61  82 E5        30.29R
LEESBURG*      CLOUDY    68  61  77 SE7       30.30R
WINCHESTER     CLOUDY    66  55  68 SE7       30.28R
FRONT ROYAL*   CLOUDY    63  59  88 CALM      30.27R
LURAY*         CLOUDY    66  59  77 CALM      30.28R
$$

VAZ048-049-060>072-079>083-200300-
CENTRAL AND SOUTH CENTRAL VIRGINIA...AND NORTH CENTRAL NORTH CAROLINA

CITY           SKY/WX    TMP DP  RH WIND       PRES   REMARKS
RICHMOND       MOCLDY    67  59  75 E3        30.26S
CHESTERFIELD*  PTCLDY   N/A N/A N/A CALM      30.28R
PETERSBURG*    CLEAR     63  56  78 E3        30.27S
HANOVER        PTCLDY    65  60  84 CALM      30.29R
TAPPAHANNOCK*  CLEAR     60  56  85 CALM      30.29R
CHARLOTTSVILLE CLOUDY    63  60  90 CALM      30.27S
ORANGE*        CLOUDY    64  61  88 CALM      30.29S
LOUISA*        CLOUDY    66  63  88 CALM      30.27R
FARMVILLE*     CLOUDY    64  64 100 CALM      30.25R
CREWE*         MOCLDY    63  59  88 CALM      30.27R
FORT PICKETT*  PTCLDY    63  59  87 E3        30.27R
LUNENBURG*     CLOUDY    67  58  72 CALM      30.26R
SOUTH HILL*    CLOUDY    66  63  88 CALM      30.31R
LAWRENCEVILLE* MOCLDY    64  59  83 CALM      30.26R
ROANOKE RAPIDS PTCLDY    63  59  88 E5        30.25R
RALEIGH        PTCLDY    68  56  65 E7        30.23R
$$

VAZ088>098-200300-
SOUTHEAST VIRGINIA

CITY           SKY/WX    TMP DP  RH WIND       PRES   REMARKS
NORFOLK        CLEAR     69  58  67 E7        30.26R
VIRGINIA BEACH CLEAR     69  57  65 E8        30.26R
NORFOLK NAVAL  PTCLDY    71  58  63 E9        30.28R
WEST POINT*    CLEAR     62  59  89 E3        30.29S
NEWPORT NEWS   CLEAR     66  58  75 CALM      30.27R
LANGLEY AFB    CLEAR     69  59  70 E8        30.26R
FORT EUSTIS    CLEAR     64  62  91 N2        30.26R
WILLIAMSBURG*  CLEAR     64  61  88 CALM      30.28R
HR EXEC AP*    CLEAR     55  52  88 CALM      30.28S
FRANKLIN*      CLEAR     61  61 100 CALM      30.26S
WAKEFIELD      CLEAR     62  58  86 CALM      30.27R
$$

VAZ020-022-025-037-045-200300-
WEST CENTRAL AND SOUTHWEST VIRGINIA

CITY           SKY/WX    TMP DP  RH WIND       PRES   REMARKS
STAUNTON*      CLOUDY    62  56  82 CALM      30.31R
HOT SPRINGS VA CLOUDY    52  50  94 SE8       30.34F
LYNCHBURG      CLOUDY    61  58  90 N5        30.28R
DANVILLE       CLOUDY    66  61  84 NE3       30.25R
SOUTH BOSTON*  NOT AVBL
MARTINSVILLE   CLOUDY    63  63 100 N3        30.30R
ROANOKE        CLOUDY    61  58  90 CALM      30.30S
BLACKSBURG     MOCLDY    57  57 100 CALM      30.31S
DUBLIN*        CLOUDY    60  60  99 E5        30.31R
MARION*        MOCLDY    63  58  84 E12       30.29S
HILLSVILLE*    PTCLDY    57  56  97 CALM      30.30R
RICHLANDS*     CLEAR     65  58  75 SE8       30.23R
WISE*          CLEAR     64  54  68 S10       30.23R
ABINGDON*      CLEAR     66  57  72 E7        30.22S
$$

MDZ021>025-VAZ099-100-200300-
SOUTHERN MARYLAND AND THE DELMARVA PENINSULA

CITY           SKY/WX    TMP DP  RH WIND       PRES   REMARKS
PATUXENT RIVER PTCLDY    67  61  81 E13       30.29R
BAY BRIDGE APT   N/A     64  57  77 E6        30.31S
LEONARDTOWN    PTCLDY    64  59  82 E6        30.30S
DOVER          MOCLDY    64  61  88 NE13      30.30S
GEORGETOWN     PTCLDY    64  59  83 E10       30.31R
EASTON         NOT AVBL
CAMBRIDGE      CLEAR     63  59  88 CALM      30.29S
SALISBURY      CLEAR     63  58  83 CALM      30.30R
OCEAN CITY     PTCLDY    70  59  68 E10G21    30.29R
WALLOPS ISLAND PTCLDY    70  59  68 E9        30.29R
ACCOMACK*      CLEAR     57  55  94 NE3       30.28R
$$

NCZ012>017-030>032-200300-
EASTERN NORTH CAROLINA

CITY           SKY/WX    TMP DP  RH WIND       PRES   REMARKS
ELIZABETH CITY CLEAR     68  60  75 NE7       30.25R
AHOSKIE*       CLEAR     64  58  81 CALM      30.25S
EDENTON*       CLEAR     64  59  83 CALM      30.25R
CURRITUCK*     CLEAR     71  58  64 E5        30.25S
KILL DEVIL HLS CLEAR     72  57  59 NE9G20    30.22S
MANTEO         CLEAR     71  57  61 NE15G21   30.24S
CAPE HATTERAS  MOCLDY    70  61  73 NE8G20    30.20S
TARBORO*       CLEAR     63  60  91 NE3       30.25R
GOLDSBORO      CLEAR     67  64  89 E10       30.19S
WASHINGTON     CLEAR     65  58  79 NE7       30.23S
GREENVILLE     CLEAR     64  59  82 E5        30.24S
NEW BERN       MOCLDY    70  59  68 NE9       30.22R
WILMINGTON     CLOUDY    70  62  76 NE12      30.17R
$$

VAZ048-200300-
ELSEWHERE

CITY           SKY/WX    TMP DP  RH WIND       PRES   REMARKS
HARRISBURG PA  MOCLDY    63  55  75 SE12      30.30S
BALTIMORE      MOCLDY    65  58  78 E10       30.31R
ANNAPOLIS      MOCLDY    67  60  78 E9        30.31R
ANDREWS AFB    MOCLDY    65  60  82 E7        30.29S
WILMINGTON DE  CLEAR     60  55  83 E10       30.35R
PHILADELPHIA   CLEAR     60  54  80 E8        30.35S
WILDWOOD NJ*   PTCLDY    66  55  68 E12       30.33R
ATLANTIC CITY  CLEAR     60  57  89 E7        30.34R
HENDERSON NC   CLEAR     64  60  84 E5        30.25R
GREENSBORO     PTCLDY    64  62  93 NE6       30.24R
ROCKY MOUNT    CLEAR     64  58  80 NE3       30.24R
FAYETTEVILLE   CLEAR     68  60  75 NE5       30.18S
CHARLOTTE      PTCLDY    70  59  68 NE8       30.20R
$$

VAZ100-200300-
MARINE

STATION/POSITION TIME  TEMP    WIND        PRES    WAVE   SWELL
                       AIR SEA DIR/SP/G            HT/PER HT/PER
                 (UTC) (F)     (DEG/KT/KT) (MB)    (FT/S) (FT/S)
44066 TX TWR #4  0200   64 72   90/ 14/ 17 1027.9R   5/ 7   3/ 7
CAPE MAY NJ      0200   68 75   90/  7/ 12 1026.0R
LEWES DE         0200   69 72  120/  9/ 13 1025.9R
15NM E FENWICK I 0200   71 72              1025.6R   5/ 7
OCEAN-CITY-INLET 0200   70 72  100/ 11/ 15 1025.4R
WACHAPREAGUE VA  0200   70 75   90/  8/ 10 1025.0F
THOMAS POINT MD  0200   67 73  100/ 13/ 14 1027.2R
GOOSES REEF MD   0200   68     120/ 14/ 16 1026.3R
COVE POINT MD    0200   67     110/ 12/ 14 1025.7R
SOLOMONS ISLAND  0200      76                N/A
BISHOPS HEAD MD  0200   67 72   80/ 11/ 15 1024.9F
PINEY POINT MD   0200          100/ 12/ 14   N/A
POTOMAC MD       0200   71     100/ 12/ 16 1024.7S
CAMBRIDGE MD     0200   67 75   70/  9/ 12 1025.5R
LEWISETTA VA     0200   71 74  100/ 13/ 14 1024.9R
RAPPAHANNOCK LGT 0200           70/ 10/ 11 1025.6R
STINGRAY PT      0200   72     100/ 12/ 14   N/A
YORK RVR RNG VA  0200   72     100/ 13/ 15 1024.2S
YORKTOWN VA      0200   72 76  100/ 10/ 13 1024.6R
JAMESTOWN VA     0200   70      70/  4/  6   N/A
DOMINION TERM VA 0200   72      80/ 10/ 14 1024.8R
KIPTOPEKE VA     0200      79   90/  6/  9   N/A
CHES BAY BRIDGE  0200   72 75   60/ 14/ 16 1024.3S
CAPE HENRY VA    0200   72      70/ 15/ 18 1023.4F
CHESAPEAKE LGHT  0100   71      70/ 15/ 17 1025.0R
WILLOUBY STN VA  0200   72      60/ 10/ 14 1023.4S
S CRANEY ISL VA  0200           50/  8/ 10 1024.4S
CAPE HENRY BUOY  0200      75                N/A     3/ 4
1ST LANDING BUOY 0200   72      80/ 14/ 17 1024.4S
CAPE CHARLES BUO 0200      75                N/A     3/ 4   2/10
OFFSHORE WE BUOY 0200      74                N/A     4/10   2/10
64NM E OF VA BCH 0200   73 75   50/ 16/ 19 1023.6R   4/ 6   2/10
DUCK PIER NC     0200   73 75   70/ 18/ 20 1023.2F
44100 DUCK FRF   0200      74                N/A     4/ 4
44056 DUCK FRF   0200                        N/A     4/ 5
OREGON INLET NC  0200   73 74   40/ 15/ 20 1023.2S
HATTERAS NC      0200   73 76   40/ 11/ 19 1023.1F
DIAMOND SHLS NC  0200   76      60/ 17/ 21 1021.9R   7/ 7   2/11
CAPE LOOKOUT NC  0100   75      40/ 23/ 26 1021.9R
$$


USA.gov is the U.S. government's official web portal to all federal, state and local government web resources and services.